Location: ????? ????????
(54.7730°N, 39.4523°E)
Time: 13:58:43
(UTC+00:00)

Daily predictions for brighter satellites

Satellite Brightness Start Highest point End
(mag) Time Altitude Azimuth Time Altitude Azimuth Time Altitude Azimuth
Ariane Rocket 3.2 18:53:15 10° S 18:58:19 73° WSW 19:03:25 10° NNW
BREEZE-M R/B 4.3 18:55:09 10° SSW 18:59:08 35° SE 19:06:20 10° E
Cosmos 2315 Rocket 4.2 18:53:56 10° S 18:59:59 57° E 19:06:03 10° NNE
IRS-1C Rocket 4.3 18:54:50 10° S 19:00:05 73° WSW 19:05:22 10° NNW
NOSS 2-3 (E) 3.6 18:58:11 10° WSW 19:01:50 69° NW 19:05:54 10° NE
Cosmos 1833 Rocket 4.0 18:57:28 10° NW 19:02:30 34° WSW 19:07:29 10° S
USA 59 Rocket 0.3 18:59:39 10° S 19:02:36 25° SE 19:05:11 10° ENE
Cosmos 1538 Rocket 4.3 18:59:09 10° SSW 19:04:22 75° WNW 19:09:41 10° NNE
Cosmos 1703 4.0 19:02:30 10° SSW 19:05:31 42° WNW 19:08:35 10° N
Iridium 4 Rocket 3.5 19:00:45 10° S 19:05:48 80° W 19:10:27 10° N
Meteor 1-13 Rocket 4.4 19:00:54 10° S 19:06:52 84° E 19:12:50 10° NNE
Terra 4.4 19:04:36 10° WSW 19:07:16 15° W 19:09:57 10° NW
NOSS 2-1 (D) 3.9 19:04:24 10° S 19:07:22 24° SE 19:09:58 10° ENE
CZ-4B R/B 3.6 19:04:10 10° S 19:08:02 50° W 19:11:58 10° NNW
Okean O Rocket 3.5 19:04:25 10° SSW 19:08:05 26° W 19:11:47 10° NW
Cosmos 923 Rocket 4.0 19:05:37 10° SSW 19:10:48 66° ESE 19:15:58 10° NNE
USA 276 3.6 19:11:47 10° SSE 19:12:15 10° SSE 19:12:44 10° SE
Cosmos 1470 Rocket 3.6 19:08:23 10° N 19:12:53 85° ENE 19:17:19 10° SSE
CZ-4B R/B 4.0 19:08:17 10° S 19:13:24 61° WSW 19:18:38 10° NNW
Lacrosse 4 Rocket 3.5 19:11:24 10° NNW 19:14:49 23° NNE 19:18:13 10° E
S3M 4.0 19:12:03 10° S 19:18:11 88° E 19:24:25 10° NNE
Cosmos 2112 Rocket 4.3 19:13:25 10° S 19:18:22 49° ESE 19:23:22 10° NE
Cosmos 1110 Rocket 4.2 19:14:40 10° NNW 19:19:51 66° ENE 19:24:59 10° SE
Cosmos 1933 Rocket 4.0 19:15:58 10° N 19:20:11 49° ENE 19:24:23 10° SSE
Helios 1B rocket 3.7 19:17:47 10° ESE 19:20:38 24° ENE 19:23:29 10° N
NOSS 3-2 (C) 3.8 19:16:05 10° WSW 19:21:25 67° NNW 19:28:01 10° NE
Cosmos 1953 3.7 19:19:24 10° NNW 19:22:32 29° W 19:25:40 10° SSW
Cosmos 1709 Rocket 4.3 19:16:15 10° NNW 19:22:35 69° W 19:28:55 10° S
GP-B 3.9 19:18:31 10° N 19:22:45 50° W 19:26:58 10° SSW
Cosmos 1328 Rocket 3.6 19:18:54 10° SSW 19:23:14 80° WNW 19:27:35 10° N
Cosmos 883 Rocket 4.5 19:17:40 10° S 19:23:48 82° E 19:29:57 10° NNE
Cosmos 1371 Rocket 4.3 19:19:28 10° NNW 19:24:40 63° WSW 19:29:46 10° S
Cosmos 2082 Rocket 2.2 19:20:31 10° NW 19:26:11 84° WSW 19:31:46 10° SSE
NOSS 2-1 (C) 3.7 19:23:44 10° SSW 19:26:56 30° SE 19:29:41 10° ENE
Okean 3 4.2 19:23:29 10° SSE 19:27:06 34° E 19:30:45 10° NNE
Cosmos 2184 Rocket 4.4 19:23:33 10° N 19:29:44 54° ENE 19:35:54 10° SSE
Cosmos 1452 Rocket 4.0 19:24:50 10° NNW 19:30:03 56° ENE 19:35:13 10° SE
Cosmos 1441 Rocket 4.1 19:27:47 11° SSE 19:30:19 26° E 19:33:04 10° NE
Cosmos 2154 Rocket 4.5 19:24:49 10° N 19:30:53 51° ENE 19:36:55 10° SSE
CENTAUR R/B 4.2 19:24:31 10° WNW 19:31:00 44° N 19:39:00 10° ENE
Cosmos 2278 Rocket 2.3 19:28:14 10° SSW 19:33:47 61° ESE 19:39:23 10° NE
Cosmos 1812 1.9 19:32:18 10° N 19:33:52 29° ENE 19:34:54 16° SE
Cosmos 494 Rocket 4.0 19:31:15 10° SSW 19:36:25 67° ESE 19:41:40 10° NNE
CZ-2C R/B 2.9 19:34:22 10° S 19:36:58 40° W 19:39:36 10° NNW
USA 238 DEB 3.6 19:31:19 10° SSW 19:37:27 66° SE 19:44:17 10° NE
USA 238 3.6 19:31:33 10° SSW 19:37:41 66° SE 19:44:30 10° NE
Timation 2 Rocket 4.4 19:31:47 10° S 19:37:46 46° ESE 19:44:03 10° NE
Meteor 1-21 4.3 19:32:31 10° SSW 19:38:10 88° WNW 19:43:54 10° NNE
Helios 1A 3.6 19:37:54 10° NNE 19:41:37 37° E 19:44:59 12° SSE
Cosmos 1331 Rocket 4.0 19:39:07 10° NNW 19:44:19 90° SW 19:49:09 12° SSE
Cosmos 1943 Rocket 2.2 19:40:19 10° SSW 19:45:59 87° ESE 19:51:39 10° NE
USA 308 4.0 19:49:06 12° SE 19:49:13 12° SE 19:50:35 10° ESE
Cosmos 1869 Rocket 3.6 19:48:10 10° N 19:52:29 73° ENE 19:56:19 13° SSE
Lacrosse 5 rocket 1.2 19:49:58 10° W 19:53:33 70° NNW 19:57:02 10° ENE
ARIANE 5 R/B 3.3 19:50:27 11° SE 19:54:33 46° ENE 19:58:47 10° N
CZ-2C R/B 4.1 19:54:53 10° ESE 19:59:15 28° ENE 20:03:43 10° N
USA 81 4.1 19:58:26 10° N 20:03:44 82° W 20:08:36 12° S
Cosmos 1515 Rocket 3.7 20:00:05 10° SSW 20:04:24 75° WNW 20:08:44 10° N
Cosmos 1733 Rocket 3.8 20:00:24 10° N 20:04:31 43° ENE 20:08:13 12° SE
COSMOS 2406 3.2 20:02:25 10° NW 20:08:09 84° WSW 20:13:17 13° SSE
NOSS 7 (E) 4.2 20:05:50 10° NW 20:09:05 76° SW 20:11:47 14° SE
Cosmos 1048 Rocket 4.1 20:03:59 10° S 20:09:08 63° ESE 20:14:24 10° NNE
Cosmos 1680 Rocket 3.9 20:04:27 10° SW 20:09:37 66° WNW 20:14:50 10° NNE
ALOS 2 3.1 20:06:36 12° SE 20:10:29 55° ENE 20:14:47 10° N
Okean 2 4.1 20:08:47 10° SSW 20:12:31 47° WNW 20:16:17 10° N
Cosmos 2369 Rocket 3.6 20:08:55 12° SSE 20:12:35 22° ESE 20:16:48 10° NE
Cosmos 1400 Rocket 3.7 20:12:13 10° NNW 20:15:36 35° W 20:18:44 11° SSW
Cosmos 972 Rocket 4.2 20:11:53 10° NNW 20:17:37 78° ENE 20:22:12 13° SSE
USA 215 3.3 20:13:57 10° SE 20:20:25 63° SSW 20:26:55 10° WNW
IKONOS-2 4.5 20:16:44 10° NNE 20:20:51 81° WNW 20:24:52 10° SSW
Cosmos 1656 Rocket 3.9 20:18:20 12° S 20:23:16 50° ESE 20:28:40 10° NE
Cosmos 1862 Rocket 4.5 20:20:22 14° SSE 20:23:30 34° E 20:27:24 10° NNE
USA 290 3.1 20:20:39 10° NNW 20:23:40 41° ENE 20:26:23 12° SE
ARIANE 6 FM1 Upper Stage 3.8 20:22:13 15° S 20:24:36 25° SE 20:28:00 10° ENE
Cosmos 1315 Rocket 3.6 20:22:00 10° N 20:25:37 39° ENE 20:28:46 13° SE
Cosmos 2074 Rocket 4.2 20:22:17 10° NNW 20:28:26 67° W 20:33:59 13° S
Cosmos 1302 Rocket 4.0 20:23:45 10° NNW 20:29:05 87° WSW 20:33:36 14° SSE
NOSS 2-1 (E) 2.8 20:28:35 10° SW 20:32:09 85° NW 20:35:14 10° NE
NOSS 3-1 (C) 3.8 20:34:30 15° S 20:37:45 32° ESE 20:42:41 10° ENE
PSLV R/B 4.2 20:33:43 10° NNE 20:38:15 48° E 20:41:46 16° S
Cosmos 2344 3.7 20:31:01 10° WSW 20:38:26 73° NW 20:45:53 10° NE
Okean 1-7 3.5 20:35:56 16° SSE 20:39:01 47° E 20:43:06 10° NNE
Spot 4 4.0 20:38:57 16° S 20:42:52 71° WSW 20:47:43 10° NNW
USA 276 2.6 20:42:06 10° SW 20:44:16 25° S 20:46:39 10° ESE
Cosmos 220 Rocket 4.1 20:46:26 10° NNW 20:50:39 68° ENE 20:54:16 13° SE
Cosmos 1328 3.5 20:48:02 16° SSW 20:50:45 81° WNW 20:54:19 10° N
USA 59 Rocket 0.5 20:47:55 10° WSW 20:50:57 41° NNW 20:53:45 10° NE
Lacrosse 4 Rocket 1.4 20:48:56 10° NW 20:53:10 83° NE 20:57:02 12° SE
Helios 1B rocket 3.0 20:51:01 16° SSW 20:53:25 35° W 20:56:39 10° NNW
NOSS 2-1 (D) 3.9 20:52:39 10° WSW 20:55:48 44° NNW 20:58:41 10° NE
Nadezhda 1 Rocket 4.0 20:51:27 14° S 20:56:57 89° W 21:03:17 10° N
Cosmos 2218 Rocket 4.3 20:50:42 10° N 20:57:02 65° ENE 21:02:35 13° SSE
Cosmos 1992 Rocket 4.0 20:53:17 10° NNW 20:58:31 86° WSW 21:02:55 15° SSE
COSMOS 2455 4.0 20:55:28 14° SSE 20:59:23 28° ESE 21:04:22 10° NE
ATLAS 5 CENTAUR R/B 1.0 20:58:21 19° SSW 21:00:06 43° SE 21:03:08 10° ENE
Meteor 1-24 Rocket 4.1 20:59:01 15° S 21:03:54 61° E 21:09:51 10° NNE
GEOS 3 Rocket 3.7 20:59:58 11° SE 21:05:14 70° SW 21:10:38 10° NW
ACS3 Solar Sail 2.5 21:03:34 10° NNE 21:08:50 38° E 21:13:26 14° SSE
Cosmos 2082 Rocket 4.0 21:05:41 10° WNW 21:09:26 19° W 21:13:11 10° SW
USA 308 2.6 21:07:45 14° SW 21:10:08 43° SSE 21:13:59 10° E
NOSS 2-1 (C) 4.2 21:12:32 10° W 21:15:36 37° NNW 21:18:24 10° NE
MetOp-A 3.2 21:15:10 18° SSE 21:17:56 80° WSW 21:21:44 10° NNW
Cosmos 2278 Rocket 3.6 21:12:56 10° WSW 21:18:11 38° NW 21:23:28 10° NNE
Cosmos 1869 2.9 21:17:13 10° N 21:20:41 78° ENE 21:23:05 19° SSE
CENTAUR R/B 3.9 21:15:42 10° NW 21:23:02 58° NNE 21:31:56 10° ESE
Cosmos 614 Rocket 4.3 21:18:30 10° SW 21:23:33 65° WNW 21:28:35 10° NNE
NOSS 2-2 (C) 3.6 21:20:28 10° NW 21:23:45 61° NE 21:28:00 10° ESE
SL-8 Rocket 4.0 21:18:24 10° NNW 21:24:34 77° W 21:29:41 16° S
SL-4 R/B 2.1 21:22:40 16° SW 21:24:38 30° SSE 21:27:26 10° E
SL-12 R/B(2) 4.4 21:16:36 10° SSW 21:24:41 73° SE 21:34:45 10° NE
Meteor 2-5 Rocket 3.9 21:21:58 16° S 21:26:45 76° E 21:32:41 10° NNE
Cosmos 1174 4.4 21:23:58 10° WSW 21:27:31 45° NW 21:30:37 10° NE
Lacrosse 5 rocket 1.4 21:26:47 10° WNW 21:30:18 61° N 21:33:43 10° E
Cosmos 1943 Rocket 4.1 21:25:31 10° W 21:30:24 29° NW 21:35:16 10° NNE
Cosmos 1300 Rocket 3.9 21:26:20 10° N 21:30:39 61° ENE 21:34:16 14° SSE
ARIANE 5 R/B 4.0 21:27:49 13° SSW 21:31:02 28° W 21:34:51 10° NW
SL-8 R/B 4.1 21:29:52 10° WSW 21:34:16 39° S 21:38:41 10° ESE
CZ-2C R/B 3.1 21:29:07 10° NNE 21:34:35 90° NE 21:38:51 15° SSW
Cosmos 1833 4.3 21:33:17 10° NW 21:38:52 62° WSW 21:43:41 14° SSE
Cosmos 2341 Rocket 4.2 21:32:43 10° NNW 21:38:55 66° W 21:44:01 15° S
CZ-2C R/B 2.7 21:34:58 16° S 21:39:08 65° WSW 21:44:27 10° NNW
BREEZE-M DEB (TANK) 3.7 21:29:58 10° W 21:40:27 41° SW 21:44:13 10° SE
Cosmos 1733 Rocket 4.5 21:38:23 10° NNW 21:41:59 26° W 21:45:08 12° SW
SAR-Lupe-2 4.4 21:42:23 18° SSW 21:44:13 31° W 21:47:09 10° NNW
ALOS 2 4.2 21:44:00 12° SW 21:47:07 23° W 21:50:40 10° NW
Cosmos 1707 Rocket 4.3 21:45:49 13° SW 21:49:34 46° WNW 21:53:51 10° N
Cosmos 2297 Rocket 3.5 21:44:39 10° NNW 21:50:02 42° NE 21:55:23 10° ESE
Cosmos 2228 Rocket 3.4 21:48:39 15° SSW 21:52:12 59° WNW 21:56:36 10° N
Cosmos 1703 Rocket 3.6 21:49:16 17° S 21:52:36 80° E 21:57:02 10° NNE
OPS 8737 4.1 21:50:07 10° NW 21:53:25 78° SW 21:56:29 10° SE
Landsat 5 3.6 21:49:58 10° NNE 21:53:37 52° E 21:56:17 17° S
Cosmos 1356 Rocket 4.0 21:50:19 10° NNW 21:54:08 42° W 21:56:55 17° SSW
Cosmos 2369 Rocket 2.2 21:50:39 12° SW 21:55:57 84° WNW 22:01:37 10° NNE
Meteor 2-8 Rocket 4.5 21:50:55 10° NNW 21:57:08 87° WSW 22:02:38 13° S
USA 290 4.1 21:55:16 10° WNW 21:57:28 18° WSW 21:58:47 14° SW
Cosmos 2297 3.8 21:54:48 12° SSW 22:00:07 88° WNW 22:05:53 10° NNE
Cosmos 1315 Rocket 4.3 21:57:53 10° NW 22:00:58 23° W 22:03:25 13° SW
ARIANE 6 FM1 Upper Stage 2.8 21:59:06 10° WSW 22:03:16 75° NNW 22:07:22 10° NE
USA 215 4.3 22:00:17 14° S 22:04:19 25° SW 22:09:35 10° WNW
Cosmos 540 Rocket 3.6 22:04:05 10° NNW 22:09:12 74° ENE 22:14:17 10° SSE
Cosmos 1934 Rocket 4.4 22:04:12 10° N 22:10:29 63° ENE 22:16:47 10° SSE
In-Cosmos 22 Rocket 4.4 22:08:41 14° S 22:13:23 68° E 22:19:03 10° NNE
USA 276 2.7 22:14:12 10° WSW 22:16:35 27° S 22:19:08 10° SE
USA 32 4.3 22:11:55 10° N 22:17:09 70° E 22:22:18 10° SSE
NOSS 3-1 (A) 3.1 22:18:34 13° SSW 22:22:46 65° SE 22:28:40 10° NE
NOSS 3-1 (C) 3.4 22:23:00 10° WSW 22:27:56 69° NNW 22:34:07 10° NE
Cosmos 407 Rocket 4.4 22:24:23 12° S 22:28:42 39° ESE 22:33:27 10° NE
Nadezhda 3 Rocket 4.1 22:24:15 13° S 22:29:50 83° E 22:36:11 10° NNE
Cosmos 1346 Rocket 3.2 22:27:05 14° S 22:30:03 48° E 22:33:35 10° NNE
Lacrosse 4 Rocket 3.1 22:27:36 10° WNW 22:30:23 17° WSW 22:32:24 13° SW
DELTA 2 DEB (DPAF) 3.8 22:27:25 10° NNE 22:30:57 60° ESE 22:33:46 15° S
USA 308 2.5 22:28:25 10° W 22:31:57 78° S 22:36:13 10° E
Cosmos 2181 Rocket 4.4 22:28:00 13° SSW 22:33:44 61° WNW 22:40:08 10° N
Cosmos 1818 3.7 22:30:42 10° SW 22:36:09 82° NW 22:41:40 10° NE
ADEOS Rocket 3.9 22:30:34 10° NNE 22:36:25 40° E 22:41:44 10° SSE
NOSS 2-2 (E) 3.3 22:33:17 10° NW 22:36:39 79° NE 22:41:01 10° SE
USA 59 Rocket 2.2 22:38:05 10° NW 22:40:08 17° N 22:42:14 10° NE
Cosmos 1782 Rocket 4.3 22:37:53 10° NNW 22:41:58 38° W 22:45:24 13° SSW
ATLAS 5 CENTAUR R/B 2.5 22:39:18 10° W 22:42:05 32° NNW 22:45:12 10° NE
COSMOS 2455 3.0 22:38:44 10° SW 22:44:46 81° NW 22:50:50 10° NE
Cosmos 304 Rocket 4.0 22:40:42 13° S 22:44:49 62° ESE 22:49:32 10° NNE
Cosmos 1140 Rocket 3.5 22:43:28 13° SSW 22:48:07 83° WNW 22:53:16 10° NNE
ACS3 Solar Sail 2.2 22:45:48 10° N 22:51:13 48° WNW 22:56:44 10° SW
Cosmos 1656 4.3 22:46:54 11° S 22:51:51 47° ESE 22:57:09 10° NE
CZ-4C R/B 3.4 22:49:54 10° N 22:53:31 56° WNW 22:56:38 13° SSW
Cosmos 1763 Rocket 3.8 22:50:50 10° NW 22:55:42 48° WSW 23:00:32 10° S
Cosmos 371 Rocket 3.5 22:52:11 12° SSW 22:56:33 68° ESE 23:01:22 10° NNE
SL-4 R/B 1.5 22:58:26 10° WSW 23:01:31 47° S 23:04:32 10° ESE
Cosmos 1697 Rocket 4.4 22:59:28 10° SSE 23:03:48 23° ESE 23:08:09 10° NE
Cosmos 2227 Rocket 3.0 22:58:54 10° NNW 23:04:29 56° NE 23:10:02 10° SE
NOSS 2-2 (D) 3.5 23:02:54 10° WNW 23:06:18 48° SW 23:10:44 10° SSE
SJ 16-02 1.5 23:02:28 11° S 23:06:24 64° ESE 23:10:38 10° NNE
Lacrosse 5 rocket 0.8 23:03:24 10° WNW 23:06:51 58° SSW 23:10:10 10° SE
PSLV R/B 3.8 23:03:44 10° NNE 23:07:37 81° WNW 23:11:14 11° SSW
Cosmos 1605 Rocket 4.1 23:01:30 10° N 23:07:50 88° ENE 23:14:02 10° S
CZ-2D R/B 4.3 23:04:44 10° NE 23:08:38 20° E 23:12:31 10° SE
CENTAUR R/B 3.3 23:06:19 10° NW 23:14:17 74° SW 23:23:36 10° SE
Cosmos 921 Rocket 3.2 23:10:28 11° SW 23:14:29 61° WNW 23:18:38 10° NNE
SL-8 R/B 4.4 23:11:45 10° WSW 23:15:56 31° SSW 23:20:08 10° SE
Spot 1 4.4 23:11:12 10° NNE 23:16:12 90° WNW 23:20:58 10° SSW
IDEFIX/ARIANE 42P 2.7 23:13:58 10° NNE 23:19:14 74° ESE 23:24:27 10° S
Cosmos 1455 Rocket 4.1 23:18:30 10° N 23:22:41 46° ENE 23:26:53 10° SSE
FENGYUN 3A 4.0 23:18:26 10° NNE 23:23:47 64° ESE 23:29:06 10° S
Cosmos 2251 Rocket 4.2 23:19:10 10° S 23:24:19 52° ESE 23:29:31 10° NE
Cosmos 1378 Rocket 3.5 23:22:20 10° SSW 23:26:36 76° WNW 23:30:55 10° N
Cosmos 405 Rocket 2.0 23:24:34 10° SSW 23:27:31 89° E 23:30:31 10° NNE
Geosat 4.3 23:23:45 10° NNE 23:28:43 64° NW 23:33:39 10° SW
H-2A R/B 3.9 23:24:45 10° NE 23:29:03 25° E 23:33:15 10° SE
Nimbus 7 Rocket 4.5 23:23:27 10° NNE 23:29:23 88° W 23:35:15 10° SSW
MSX 3.9 23:23:39 10° NNE 23:29:28 86° ESE 23:35:14 10° SSW
Aureole 3 4.5 23:23:19 10° SSW 23:29:46 82° WNW 23:35:29 10° N
SeaSat 1 3.6 23:27:45 10° ESE 23:32:27 49° NE 23:37:10 10° NNW
Cosmos 2228 4.3 23:29:08 10° N 23:33:10 41° ENE 23:37:10 10° SE
Cosmos 2297 Rocket 2.4 23:28:45 10° NW 23:34:15 53° WSW 23:39:44 10° S
ADEOS II 4.1 23:30:52 10° NE 23:34:58 23° E 23:39:03 10° SE
Cosmos 468 Rocket 4.3 23:30:48 10° NW 23:35:40 45° WSW 23:40:30 10° S
Cosmos 1782 3.1 23:32:59 10° N 23:36:29 57° ENE 23:39:56 10° SSE
BREEZE-M DEB (TANK) 3.9 23:22:16 10° WSW 23:36:49 56° S 23:40:45 10° ESE
Cosmos 1437 Rocket 3.6 23:35:17 10° N 23:38:38 45° ENE 23:41:54 10° SE
NPP 3.8 23:34:32 10° NNE 23:39:59 82° ESE 23:45:23 10° SSW
Cosmos 2369 Rocket 3.9 23:36:03 10° W 23:40:46 27° NNW 23:45:31 10° NNE
Meteor 1-11 4.5 23:36:08 10° SSW 23:41:44 64° WNW 23:47:28 10° N
ARIANE 6 FM1 Upper Stage 4.4 23:38:59 10° WNW 23:42:44 32° NNW 23:46:26 10° NE
Cosmos 2084 Rocket 4.1 23:39:52 10° SSW 23:43:38 40° SE 23:47:29 10° ENE
USA 229 DEB 4.3 23:39:29 10° S 23:45:07 42° ESE 23:51:26 10° NE
USA 229 4.4 23:39:32 10° S 23:45:10 42° ESE 23:51:29 10° NE
USA 276 3.8 23:47:14 10° WSW 23:48:46 13° SSW 23:50:21 10° S
Okean 2 Rocket 3.3 23:44:58 10° NNW 23:49:15 54° W 23:53:30 10° S
Meteor 1-27 4.3 23:44:13 10° NNW 23:50:00 86° WSW 23:55:49 10° S
Cosmos 1980 Rocket 4.0 23:46:25 10° SSE 23:50:57 25° ESE 23:55:30 10° NE
